Location: Detroit
(42.3310°N, 83.0460°W)
Time: 15:48:53
(UTC-04:00)

Courier 1B Rocket - Pass Details

Date: 28 April 2024
Orbit: 920 x 1201 km, 28.2° (Epoch: 19 May)

Event Time Altitude Azimuth Distance (km) Brightness Sun altitude
Exits shadow 02:40:29 12° 121° (ESE) 2,997 7.4 -31.0°
Drops below altitude 10° 02:40:59 10° 118° (ESE) 3,114 7.5 -31.0°
Sets 02:44:28 0° 104° (ESE) 4,057 8.3 -30.8°
